START_TIME,STEP,MOV.,E45,t_acc.,ALAR?,t_acc.,A12,t_acc.,A24,t_acc.
1981-08-26 12:00:27.180 ,1,0,0.,4.8,164.,4.8,0.,4.8,0.,4.8
1981-08-26 12:00:31.980 ,1,0,0.,4.8,132.,4.8,0.,4.8,0.,4.8
1981-08-26 12:00:36.780 ,1,0,0.,4.8,160.,4.8,0.,4.8,0.,4.8
1981-08-26 12:00:41.580 ,1,0,0.,4.8,152.,4.8,0.,4.8,0.,4.8
1981-08-26 12:00:46.380 ,1,0,0.,4.8,148.,4.8,0.,4.8,0.,4.8
1981-08-26 12:00:51.180 ,0,0,0.,4.8,136.,4.8,0.,4.8,0.,4.8
1981-08-26 12:00:55.980 ,0,0,0.,4.8,148.,4.8,0.,4.8,0.,4.8
1981-08-26 12:01:00.780 ,0,0,0.,4.8,172.,4.8,0.,4.8,0.,4.8
1981-08-26 12:01:05.580 ,0,0,0.,4.8,140.,4.8,0.,4.8,0.,4.8
1981-08-26 12:01:10.380 ,0,0,0.,4.8,184.,4.8,0.,4.8,0.,4.8
1981-08-26 12:01:15.180 ,0,0,0.,4.8,164.,4.8,0.,4.8,0.,4.8
1981-08-26 12:01:19.980 ,0,0,0.,4.8,156.,4.8,0.,4.8,0.,4.8
1981-08-26 12:01:24.780 ,0,0,0.,4.8,148.,4.8,0.,4.8,0.,4.8
1981-08-26 12:01:29.580 ,0,0,0.,4.8,172.,4.8,0.,4.8,0.,4.8
1981-08-26 12:01:34.380 ,0,0,0.,4.8,126.,4.8,0.,4.8,0.,4.8
1981-08-26 12:01:39.180 ,0,0,0.,4.8,152.,4.8,0.,4.8,0.,4.8
1981-08-26 12:01:43.980 ,0,0,0.,4.8,148.,4.8,0.,4.8,0.,4.8
1981-08-26 12:01:48.780 ,0,0,0.,4.8,160.,4.8,0.,4.8,0.,4.8
1981-08-26 12:01:53.580 ,0,0,0.,4.8,152.,4.8,0.,4.8,0.,4.8
1981-08-26 12:01:58.380 ,0,0,0.,4.8,136.,4.8,0.,4.8,0.,4.8
1981-08-26 12:02:03.180 ,0,0,0.,4.8,144.,4.8,0.,4.8,0.,4.8
1981-08-26 12:02:07.980 ,0,0,0.,4.8,160.,4.8,0.,4.8,0.,4.8
1981-08-26 12:02:12.780 ,0,0,0.,4.8,156.,4.8,0.,4.8,0.,4.8
1981-08-26 12:02:17.580 ,0,0,0.,4.8,176.,4.8,0.,4.8,0.,4.8
1981-08-26 12:02:22.380 ,0,0,0.,4.8,172.,4.8,0.,4.8,0.,4.8
1981-08-26 12:02:27.180 ,1,0,0.,4.8,132.,4.8,0.,4.8,0.,4.8
1981-08-26 12:02:31.980 ,1,0,0.,4.8,168.,4.8,0.,4.8,0.,4.8
1981-08-26 12:02:36.780 ,1,0,0.,4.8,164.,4.8,0.,4.8,0.,4.8
1981-08-26 12:02:41.580 ,1,0,0.,4.8,144.,4.8,0.,4.8,0.,4.8
1981-08-26 12:02:46.380 ,1,0,0.,4.8,168.,4.8,0.,4.8,0.,4.8
1981-08-26 12:02:51.180 ,1,0,0.,4.8,156.,4.8,0.,4.8,0.,4.8
1981-08-26 12:02:55.980 ,1,0,0.,4.8,152.,4.8,0.,4.8,0.,4.8
1981-08-26 12:03:00.780 ,1,0,0.,4.8,148.,4.8,0.,4.8,0.,4.8
1981-08-26 12:03:05.580 ,1,0,0.,4.8,160.,4.8,0.,4.8,0.,4.8
1981-08-26 12:03:10.380 ,1,0,0.,4.8,148.,4.8,0.,4.8,0.,4.8
1981-08-26 12:03:15.180 ,2,0,0.,4.8,156.,4.8,0.,4.8,0.,4.8
1981-08-26 12:03:19.980 ,2,0,0.,4.8,152.,4.8,0.,4.8,0.,4.8
1981-08-26 12:03:24.780 ,2,0,0.,4.8,160.,4.8,0.,4.8,0.,4.8
1981-08-26 12:03:29.580 ,2,0,0.,4.8,156.,4.8,0.,4.8,0.,4.8
1981-08-26 12:03:34.380 ,2,0,0.,4.8,160.,4.8,0.,4.8,0.,4.8
1981-08-26 12:03:39.180 ,2,0,0.,4.8,160.,4.8,0.,4.8,0.,4.8
1981-08-26 12:03:43.980 ,2,0,0.,4.8,144.,4.8,0.,4.8,0.,4.8
1981-08-26 12:03:48.780 ,2,0,0.,4.8,148.,4.8,0.,4.8,0.,4.8
1981-08-26 12:03:53.580 ,2,0,0.,4.8,156.,4.8,0.,4.8,0.,4.8
1981-08-26 12:03:58.380 ,2,0,0.,4.8,176.,4.8,0.,4.8,0.,4.8
1981-08-26 12:04:03.180 ,3,0,,0,,0,,0,,0
1981-08-26 12:04:07.980 ,3,0,0.,4.8,156.,4.8,0.,4.8,0.,4.8
1981-08-26 12:04:12.780 ,3,0,0.,4.8,180.,4.8,0.,4.8,0.,4.8
1981-08-26 12:04:17.580 ,3,0,0.,4.8,168.,4.8,0.,4.8,0.,4.8
1981-08-26 12:04:22.380 ,3,0,0.,4.8,168.,4.8,0.,4.8,0.,4.8
1981-08-26 12:04:27.180 ,3,0,0.,4.8,160.,4.8,0.,4.8,0.,4.8
1981-08-26 12:04:31.980 ,3,0,0.,4.8,156.,4.8,0.,4.8,0.,4.8
1981-08-26 12:04:36.780 ,3,0,0.,4.8,156.,4.8,0.,4.8,0.,4.8
1981-08-26 12:04:41.580 ,3,0,0.,4.8,156.,4.8,0.,4.8,0.,4.8
1981-08-26 12:04:46.380 ,3,0,0.,4.8,148.,4.8,0.,4.8,0.,4.8
1981-08-26 12:04:51.180 ,4,0,0.,4.8,160.,4.8,0.,4.8,0.,4.8
1981-08-26 12:04:55.980 ,4,0,0.,4.8,168.,4.8,0.,4.8,0.,4.8
1981-08-26 12:05:00.780 ,4,0,0.,4.8,172.,4.8,0.,4.8,0.,4.8
1981-08-26 12:05:05.580 ,4,0,0.,4.8,176.,4.8,0.,4.8,0.,4.8
1981-08-26 12:05:10.380 ,4,0,0.,4.8,136.,4.8,0.,4.8,0.,4.8
1981-08-26 12:05:15.180 ,4,0,0.,4.8,160.,4.8,0.,4.8,0.,4.8
1981-08-26 12:05:19.980 ,4,0,0.,4.8,136.,4.8,0.,4.8,0.,4.8
1981-08-26 12:05:24.780 ,4,0,0.,4.8,160.,4.8,0.,4.8,0.,4.8
1981-08-26 12:05:29.580 ,4,0,0.,4.8,152.,4.8,0.,4.8,0.,4.8
1981-08-26 12:05:34.380 ,4,0,0.,4.8,140.,4.8,0.,4.8,0.,4.8
1981-08-26 12:05:39.180 ,5,0,0.,4.8,156.,4.8,0.,4.8,0.,4.8
1981-08-26 12:05:43.980 ,5,0,0.,4.8,156.,4.8,0.,4.8,0.,4.8
1981-08-26 12:05:48.780 ,5,0,0.,4.8,156.,4.8,0.,4.8,0.,4.8
1981-08-26 12:05:53.580 ,5,0,0.,4.8,164.,4.8,0.,4.8,0.,4.8
1981-08-26 12:05:58.380 ,5,0,0.,4.8,148.,4.8,0.,4.8,0.,4.8
1981-08-26 12:06:03.180 ,5,0,0.,4.8,144.,4.8,0.,4.8,0.,4.8
1981-08-26 12:06:07.980 ,5,0,0.,4.8,164.,4.8,0.,4.8,0.,4.8
1981-08-26 12:06:12.780 ,5,0,0.,4.8,156.,4.8,0.,4.8,0.,4.8
1981-08-26 12:06:17.580 ,5,0,0.,4.8,156.,4.8,0.,4.8,0.,4.8
1981-08-26 12:06:22.380 ,5,0,0.,4.8,164.,4.8,0.,4.8,0.,4.8
1981-08-26 12:06:27.180 ,6,0,0.,4.8,180.,4.8,0.,4.8,0.,4.8
1981-08-26 12:06:31.980 ,6,0,0.,4.8,172.,4.8,0.,4.8,0.,4.8
1981-08-26 12:06:36.780 ,6,0,0.,4.8,164.,4.8,0.,4.8,0.,4.8
1981-08-26 12:06:41.580 ,6,0,0.,4.8,172.,4.8,0.,4.8,0.,4.8
1981-08-26 12:06:46.380 ,6,0,0.,4.8,168.,4.8,0.,4.8,0.,4.8
1981-08-26 12:06:51.180 ,6,0,0.,4.8,156.,4.8,0.,4.8,0.,4.8
1981-08-26 12:06:55.980 ,6,0,0.,4.8,160.,4.8,0.,4.8,0.,4.8
1981-08-26 12:07:00.780 ,6,0,0.,4.8,148.,4.8,0.,4.8,0.,4.8
1981-08-26 12:07:05.580 ,6,0,0.,4.8,156.,4.8,0.,4.8,0.,4.8
1981-08-26 12:07:10.380 ,6,0,0.,4.8,144.,4.8,0.,4.8,0.,4.8
1981-08-26 12:07:15.180 ,7,0,0.,4.8,176.,4.8,0.,4.8,0.,4.8
1981-08-26 12:07:19.980 ,7,0,0.,4.8,148.,4.8,0.,4.8,0.,4.8
1981-08-26 12:07:24.780 ,7,0,0.,4.8,156.,4.8,0.,4.8,0.,4.8
1981-08-26 12:07:29.580 ,7,0,0.,4.8,160.,4.8,0.,4.8,0.,4.8
1981-08-26 12:07:34.380 ,7,0,0.,4.8,160.,4.8,0.,4.8,0.,4.8
1981-08-26 12:07:39.180 ,7,0,0.,4.8,168.,4.8,0.,4.8,0.,4.8
1981-08-26 12:07:43.980 ,7,0,0.,4.8,152.,4.8,0.,4.8,0.,4.8
1981-08-26 12:07:48.780 ,7,0,0.,4.8,172.,4.8,0.,4.8,0.,4.8
1981-08-26 12:07:53.580 ,7,0,0.,4.8,148.,4.8,0.,4.8,0.,4.8
1981-08-26 12:07:58.380 ,7,0,0.,4.8,152.,4.8,0.,4.8,0.,4.8
1981-08-26 12:08:03.180 ,7,0,0.,4.8,164.,4.8,0.,4.8,0.,4.8
1981-08-26 12:08:07.980 ,7,0,0.,4.8,152.,4.8,0.,4.8,0.,4.8
1981-08-26 12:08:12.780 ,7,0,0.,4.8,164.,4.8,0.,4.8,0.,4.8
1981-08-26 12:08:17.580 ,7,0,0.,4.8,164.,4.8,0.,4.8,0.,4.8
1981-08-26 12:08:22.380 ,7,0,0.,4.8,152.,4.8,0.,4.8,0.,4.8
1981-08-26 12:08:27.180 ,7,0,0.,4.8,172.,4.8,0.,4.8,0.,4.8
1981-08-26 12:08:31.980 ,7,0,0.,4.8,176.,4.8,0.,4.8,0.,4.8
1981-08-26 12:08:36.780 ,7,0,0.,4.8,164.,4.8,0.,4.8,0.,4.8
1981-08-26 12:08:41.580 ,7,0,0.,4.8,160.,4.8,0.,4.8,0.,4.8
1981-08-26 12:08:46.380 ,7,0,0.,4.8,156.,4.8,0.,4.8,0.,4.8
1981-08-26 12:08:51.180 ,6,0,0.,4.8,160.,4.8,0.,4.8,0.,4.8
1981-08-26 12:08:55.980 ,6,0,0.,4.8,184.,4.8,0.,4.8,0.,4.8
1981-08-26 12:09:00.780 ,6,0,0.,4.8,140.,4.8,0.,4.8,0.,4.8
1981-08-26 12:09:05.580 ,6,0,0.,4.8,144.,4.8,0.,4.8,0.,4.8
1981-08-26 12:09:10.380 ,6,0,0.,4.8,140.,4.8,0.,4.8,0.,4.8
1981-08-26 12:09:15.180 ,6,0,0.,4.8,156.,4.8,0.,4.8,0.,4.8
1981-08-26 12:09:19.980 ,6,0,0.,4.8,156.,4.8,0.,4.8,0.,4.8
1981-08-26 12:09:24.780 ,6,0,0.,4.8,172.,4.8,0.,4.8,0.,4.8
1981-08-26 12:09:29.580 ,6,0,0.,4.8,152.,4.8,0.,4.8,0.,4.8
1981-08-26 12:09:34.380 ,6,0,0.,4.8,156.,4.8,0.,4.8,0.,4.8
1981-08-26 12:09:39.180 ,5,0,0.,4.8,156.,4.8,0.,4.8,0.,4.8
1981-08-26 12:09:43.980 ,5,0,0.,4.8,160.,4.8,0.,4.8,0.,4.8
1981-08-26 12:09:48.780 ,5,0,0.,4.8,160.,4.8,0.,4.8,0.,4.8
1981-08-26 12:09:53.580 ,5,0,0.,4.8,156.,4.8,0.,4.8,0.,4.8
1981-08-26 12:09:58.380 ,5,0,0.,4.8,176.,4.8,0.,4.8,0.,4.8
1981-08-26 12:10:03.180 ,5,0,0.,4.8,176.,4.8,0.,4.8,0.,4.8
1981-08-26 12:10:07.980 ,5,0,0.,4.8,152.,4.8,0.,4.8,0.,4.8
1981-08-26 12:10:12.780 ,5,0,0.,4.8,144.,4.8,0.,4.8,0.,4.8
1981-08-26 12:10:17.580 ,5,0,0.,4.8,152.,4.8,0.,4.8,0.,4.8
1981-08-26 12:10:22.380 ,5,0,0.,4.8,168.,4.8,0.,4.8,0.,4.8
1981-08-26 12:10:27.180 ,4,0,0.,4.8,136.,4.8,0.,4.8,0.,4.8
1981-08-26 12:10:31.980 ,4,0,0.,4.8,148.,4.8,0.,4.8,0.,4.8
1981-08-26 12:10:36.780 ,4,0,0.,4.8,132.,4.8,0.,4.8,0.,4.8
1981-08-26 12:10:41.580 ,4,0,0.,4.8,140.,4.8,0.,4.8,0.,4.8
1981-08-26 12:10:46.380 ,4,0,0.,4.8,184.,4.8,0.,4.8,0.,4.8
1981-08-26 12:10:51.180 ,4,0,0.,4.8,136.,4.8,0.,4.8,0.,4.8
1981-08-26 12:10:55.980 ,4,0,0.,4.8,152.,4.8,0.,4.8,0.,4.8
1981-08-26 12:11:00.780 ,4,0,0.,4.8,148.,4.8,0.,4.8,0.,4.8
1981-08-26 12:11:05.580 ,4,0,0.,4.8,136.,4.8,0.,4.8,0.,4.8
1981-08-26 12:11:10.380 ,4,0,0.,4.8,148.,4.8,0.,4.8,0.,4.8
1981-08-26 12:11:15.180 ,3,0,0.,4.8,152.,4.8,0.,4.8,0.,4.8
1981-08-26 12:11:19.980 ,3,0,0.,4.8,160.,4.8,0.,4.8,0.,4.8
1981-08-26 12:11:24.780 ,3,0,0.,4.8,120.,4.8,0.,4.8,0.,4.8
1981-08-26 12:11:29.580 ,3,0,0.,4.8,152.,4.8,0.,4.8,0.,4.8
1981-08-26 12:11:34.380 ,3,0,0.,4.8,160.,4.8,0.,4.8,0.,4.8
1981-08-26 12:11:39.180 ,3,0,0.,4.8,160.,4.8,0.,4.8,0.,4.8
1981-08-26 12:11:43.980 ,3,0,0.,4.8,156.,4.8,0.,4.8,0.,4.8
1981-08-26 12:11:48.780 ,3,0,0.,4.8,164.,4.8,0.,4.8,0.,4.8
1981-08-26 12:11:53.580 ,3,0,0.,4.8,156.,4.8,0.,4.8,0.,4.8
1981-08-26 12:11:58.380 ,3,0,0.,4.8,152.,4.8,0.,4.8,0.,4.8
1981-08-26 12:12:03.180 ,2,0,0.,4.8,156.,4.8,0.,4.8,0.,4.8
1981-08-26 12:12:07.980 ,2,0,0.,4.8,180.,4.8,0.,4.8,0.,4.8
1981-08-26 12:12:12.780 ,2,0,0.,4.8,172.,4.8,0.,4.8,0.,4.8
1981-08-26 12:12:17.580 ,2,0,0.,4.8,144.,4.8,0.,4.8,0.,4.8
1981-08-26 12:12:22.380 ,2,0,0.,4.8,148.,4.8,0.,4.8,0.,4.8
1981-08-26 12:12:27.180 ,2,0,0.,4.8,168.,4.8,0.,4.8,0.,4.8
1981-08-26 12:12:31.980 ,2,0,0.,4.8,132.,4.8,0.,4.8,0.,4.8
1981-08-26 12:12:36.780 ,2,0,0.,4.8,156.,4.8,0.,4.8,0.,4.8
1981-08-26 12:12:41.580 ,2,0,0.,4.8,148.,4.8,0.,4.8,0.,4.8
1981-08-26 12:12:46.380 ,2,0,0.,4.8,156.,4.8,0.,4.8,0.,4.8
1981-08-26 12:12:51.180 ,1,0,0.,4.8,132.,4.8,0.,4.8,0.,4.8
1981-08-26 12:12:55.980 ,1,0,0.,4.8,168.,4.8,0.,4.8,0.,4.8
1981-08-26 12:13:00.780 ,1,0,0.,4.8,148.,4.8,0.,4.8,0.,4.8
1981-08-26 12:13:05.580 ,1,0,0.,4.8,140.,4.8,0.,4.8,0.,4.8
1981-08-26 12:13:10.380 ,1,0,0.,4.8,156.,4.8,0.,4.8,0.,4.8
1981-08-26 12:13:15.180 ,1,0,0.,4.8,164.,4.8,0.,4.8,0.,4.8
1981-08-26 12:13:19.980 ,1,0,0.,4.8,160.,4.8,0.,4.8,0.,4.8
1981-08-26 12:13:24.780 ,1,0,0.,4.8,156.,4.8,0.,4.8,0.,4.8
1981-08-26 12:13:29.580 ,1,0,0.,4.8,168.,4.8,0.,4.8,0.,4.8
1981-08-26 12:13:34.380 ,1,0,0.,4.8,160.,4.8,0.,4.8,0.,4.8
1981-08-26 12:14:27.180 ,0,0,0.,4.8,164.,4.8,0.,4.8,0.,4.8
1981-08-26 12:14:31.980 ,0,0,0.,4.8,140.,4.8,0.,4.8,0.,4.8
1981-08-26 12:14:36.780 ,0,0,0.,4.8,160.,4.8,0.,4.8,0.,4.8
1981-08-26 12:14:41.580 ,0,0,0.,4.8,160.,4.8,0.,4.8,0.,4.8
1981-08-26 12:14:46.380 ,0,0,0.,4.8,152.,4.8,0.,4.8,0.,4.8
1981-08-26 12:14:51.180 ,0,0,0.,4.8,152.,4.8,0.,4.8,0.,4.8
1981-08-26 12:14:55.980 ,0,0,0.,4.8,132.,4.8,0.,4.8,0.,4.8
1981-08-26 12:15:00.780 ,0,0,0.,4.8,152.,4.8,0.,4.8,0.,4.8
1981-08-26 12:15:05.580 ,0,0,0.,4.8,136.,4.8,0.,4.8,0.,4.8
1981-08-26 12:15:10.380 ,0,0,0.,4.8,144.,4.8,0.,4.8,0.,4.8
1981-08-26 12:15:15.180 ,1,0,0.,4.8,160.,4.8,0.,4.8,0.,4.8
1981-08-26 12:15:19.980 ,1,0,0.,4.8,156.,4.8,0.,4.8,0.,4.8
1981-08-26 12:15:24.780 ,1,0,0.,4.8,160.,4.8,0.,4.8,0.,4.8
1981-08-26 12:15:29.580 ,1,0,0.,4.8,160.,4.8,0.,4.8,0.,4.8
1981-08-26 12:15:34.380 ,1,0,0.,4.8,132.,4.8,0.,4.8,0.,4.8
1981-08-26 12:15:39.180 ,1,0,0.,4.8,152.,4.8,0.,4.8,0.,4.8
1981-08-26 12:15:43.980 ,1,0,0.,4.8,152.,4.8,0.,4.8,0.,4.8
1981-08-26 12:15:48.780 ,1,0,0.,4.8,156.,4.8,0.,4.8,0.,4.8
1981-08-26 12:15:53.580 ,1,0,0.,4.8,156.,4.8,0.,4.8,0.,4.8
1981-08-26 12:15:58.380 ,1,0,0.,4.8,168.,4.8,0.,4.8,0.,4.8
1981-08-26 12:16:03.180 ,2,0,0.,4.8,160.,4.8,0.,4.8,0.,4.8
1981-08-26 12:16:07.980 ,2,0,0.,4.8,144.,4.8,0.,4.8,0.,4.8
1981-08-26 12:16:12.780 ,2,0,0.,4.8,164.,4.8,0.,4.8,0.,4.8
1981-08-26 12:16:17.580 ,2,0,0.,4.8,164.,4.8,0.,4.8,0.,4.8
1981-08-26 12:16:22.380 ,2,0,0.,4.8,180.,4.8,0.,4.8,0.,4.8
1981-08-26 12:16:27.180 ,2,0,0.,4.8,164.,4.8,0.,4.8,0.,4.8
1981-08-26 12:16:31.980 ,2,0,0.,4.8,160.,4.8,0.,4.8,0.,4.8
1981-08-26 12:16:36.780 ,2,0,0.,4.8,152.,4.8,0.,4.8,0.,4.8
1981-08-26 12:16:41.580 ,2,0,0.,4.8,184.,4.8,0.,4.8,0.,4.8
1981-08-26 12:16:46.380 ,2,0,0.,4.8,176.,4.8,0.,4.8,0.,4.8
1981-08-26 12:16:51.180 ,3,0,0.,4.8,180.,4.8,0.,4.8,0.,4.8
1981-08-26 12:16:55.980 ,3,0,0.,4.8,172.,4.8,0.,4.8,0.,4.8
1981-08-26 12:17:00.780 ,3,0,0.,4.8,152.,4.8,0.,4.8,0.,4.8
1981-08-26 12:17:05.580 ,3,0,0.,4.8,172.,4.8,0.,4.8,0.,4.8
1981-08-26 12:17:10.380 ,3,0,0.,4.8,172.,4.8,0.,4.8,0.,4.8
1981-08-26 12:17:15.180 ,3,0,0.,4.8,188.,4.8,0.,4.8,0.,4.8
1981-08-26 12:17:19.980 ,3,0,0.,4.8,148.,4.8,0.,4.8,0.,4.8
1981-08-26 12:17:24.780 ,3,0,0.,4.8,176.,4.8,0.,4.8,0.,4.8
1981-08-26 12:17:29.580 ,3,0,0.,4.8,152.,4.8,0.,4.8,0.,4.8
1981-08-26 12:17:34.380 ,3,0,0.,4.8,168.,4.8,0.,4.8,0.,4.8
1981-08-26 12:17:39.180 ,4,0,0.,4.8,152.,4.8,0.,4.8,0.,4.8
1981-08-26 12:17:43.980 ,4,0,0.,4.8,180.,4.8,0.,4.8,0.,4.8
1981-08-26 12:17:48.780 ,4,0,0.,4.8,160.,4.8,0.,4.8,0.,4.8
1981-08-26 12:17:53.580 ,4,0,0.,4.8,156.,4.8,0.,4.8,0.,4.8
1981-08-26 12:17:58.380 ,4,0,0.,4.8,180.,4.8,0.,4.8,0.,4.8
1981-08-26 12:18:03.180 ,0,0,0.,4.8,164.,4.8,0.,4.8,0.,4.8
1981-08-26 12:18:07.980 ,0,0,0.,4.8,144.,4.8,0.,4.8,0.,4.8
1981-08-26 12:18:12.780 ,0,0,0.,4.8,184.,4.8,0.,4.8,0.,4.8
1981-08-26 12:18:17.580 ,0,0,0.,4.8,164.,4.8,0.,4.8,0.,4.8
1981-08-26 12:18:22.380 ,0,0,0.,4.8,144.,4.8,0.,4.8,0.,4.8
1981-08-26 12:18:43.380 ,0,0,,0,,0,,0,,0
1981-08-26 12:18:48.180 ,0,0,,0,,0,,0,,0
1981-08-26 12:18:52.980 ,0,0,,0,,0,,0,,0
1981-08-26 12:18:57.780 ,0,0,0.,4.8,160.,4.8,0.,4.8,0.,4.8
1981-08-26 12:19:02.580 ,0,0,0.,4.8,156.,4.8,0.,4.8,0.,4.8
1981-08-26 12:18:51.180 ,0,0,0.,4.8,140.,4.8,0.,4.8,0.,4.8
1981-08-26 12:18:55.980 ,0,0,0.,4.8,152.,4.8,0.,4.8,0.,4.8
1981-08-26 12:19:00.780 ,0,0,0.,4.8,176.,4.8,0.,4.8,0.,4.8
1981-08-26 12:19:05.580 ,0,0,0.,4.8,116.,4.8,0.,4.8,0.,4.8
1981-08-26 12:19:10.380 ,0,0,0.,4.8,164.,4.8,0.,4.8,0.,4.8
1981-08-26 12:19:15.180 ,6,0,0.,4.8,152.,4.8,0.,4.8,0.,4.8
1981-08-26 12:19:19.980 ,6,0,0.,4.8,156.,4.8,0.,4.8,0.,4.8
1981-08-26 12:19:24.780 ,6,0,0.,4.8,164.,4.8,0.,4.8,0.,4.8
1981-08-26 12:19:29.580 ,6,0,0.,4.8,164.,4.8,0.,4.8,0.,4.8
1981-08-26 12:19:34.380 ,6,0,0.,4.8,172.,4.8,0.,4.8,0.,4.8
1981-08-26 12:19:39.180 ,6,0,0.,4.8,152.,4.8,0.,4.8,0.,4.8
1981-08-26 12:19:43.980 ,6,0,0.,4.8,152.,4.8,0.,4.8,0.,4.8
1981-08-26 12:19:48.780 ,6,0,0.,4.8,176.,4.8,0.,4.8,0.,4.8
1981-08-26 12:19:53.580 ,6,0,0.,4.8,160.,4.8,0.,4.8,0.,4.8
1981-08-26 12:19:58.380 ,6,0,0.,4.8,144.,4.8,0.,4.8,0.,4.8
1981-08-26 12:20:03.180 ,7,0,0.,4.8,140.,4.8,0.,4.8,0.,4.8
1981-08-26 12:20:07.980 ,7,0,0.,4.8,168.,4.8,0.,4.8,0.,4.8
1981-08-26 12:20:12.780 ,7,0,0.,4.8,168.,4.8,0.,4.8,0.,4.8
1981-08-26 12:20:17.580 ,7,0,0.,4.8,160.,4.8,0.,4.8,0.,4.8
1981-08-26 12:20:22.380 ,7,0,0.,4.8,152.,4.8,0.,4.8,0.,4.8
1981-08-26 12:20:27.180 ,7,0,0.,4.8,164.,4.8,0.,4.8,0.,4.8
1981-08-26 12:20:31.980 ,7,0,0.,4.8,160.,4.8,0.,4.8,0.,4.8
1981-08-26 12:20:36.780 ,7,0,0.,4.8,160.,4.8,0.,4.8,0.,4.8
1981-08-26 12:20:41.580 ,7,0,0.,4.8,144.,4.8,0.,4.8,0.,4.8
1981-08-26 12:20:46.380 ,7,0,0.,4.8,140.,4.8,0.,4.8,0.,4.8
1981-08-26 12:20:51.180 ,7,0,0.,4.8,144.,4.8,0.,4.8,0.,4.8
1981-08-26 12:20:55.980 ,7,0,0.,4.8,148.,4.8,0.,4.8,0.,4.8
1981-08-26 12:21:00.780 ,7,0,0.,4.8,152.,4.8,0.,4.8,0.,4.8
1981-08-26 12:21:05.580 ,7,0,0.,4.8,156.,4.8,0.,4.8,0.,4.8
1981-08-26 12:21:10.380 ,7,0,0.,4.8,180.,4.8,0.,4.8,0.,4.8
1981-08-26 12:21:15.180 ,7,0,0.,4.8,148.,4.8,0.,4.8,0.,4.8
1981-08-26 12:21:19.980 ,7,0,0.,4.8,156.,4.8,0.,4.8,0.,4.8
1981-08-26 12:21:24.780 ,7,0,0.,4.8,160.,4.8,0.,4.8,0.,4.8
1981-08-26 12:21:29.580 ,7,0,0.,4.8,148.,4.8,0.,4.8,0.,4.8
1981-08-26 12:21:34.380 ,7,0,0.,4.8,172.,4.8,0.,4.8,0.,4.8
1981-08-26 12:21:39.180 ,6,0,0.,4.8,148.,4.8,0.,4.8,0.,4.8
1981-08-26 12:21:43.980 ,6,0,0.,4.8,164.,4.8,0.,4.8,0.,4.8
1981-08-26 12:21:48.780 ,6,0,0.,4.8,160.,4.8,0.,4.8,0.,4.8
1981-08-26 12:21:53.580 ,6,0,0.,4.8,180.,4.8,0.,4.8,0.,4.8
1981-08-26 12:21:58.380 ,6,0,0.,4.8,132.,4.8,0.,4.8,0.,4.8
1981-08-26 12:22:03.180 ,6,0,0.,4.8,140.,4.8,0.,4.8,0.,4.8
1981-08-26 12:22:07.980 ,6,0,0.,4.8,152.,4.8,0.,4.8,0.,4.8
1981-08-26 12:22:12.780 ,6,0,0.,4.8,164.,4.8,0.,4.8,0.,4.8
1981-08-26 12:22:17.580 ,6,0,0.,4.8,136.,4.8,0.,4.8,0.,4.8
1981-08-26 12:22:22.380 ,6,0,0.,4.8,164.,4.8,0.,4.8,0.,4.8
1981-08-26 12:22:27.180 ,5,0,0.,4.8,148.,4.8,0.,4.8,0.,4.8
1981-08-26 12:22:31.980 ,5,0,0.,4.8,132.,4.8,0.,4.8,0.,4.8
1981-08-26 12:22:36.780 ,5,0,0.,4.8,148.,4.8,0.,4.8,0.,4.8
1981-08-26 12:22:41.580 ,5,0,0.,4.8,160.,4.8,0.,4.8,0.,4.8
1981-08-26 12:22:46.380 ,5,0,0.,4.8,156.,4.8,0.,4.8,0.,4.8
1981-08-26 12:22:51.180 ,5,0,0.,4.8,156.,4.8,0.,4.8,0.,4.8
1981-08-26 12:22:55.980 ,5,0,0.,4.8,136.,4.8,0.,4.8,0.,4.8
1981-08-26 12:23:00.780 ,5,0,0.,4.8,132.,4.8,0.,4.8,0.,4.8
1981-08-26 12:23:05.580 ,5,0,0.,4.8,160.,4.8,0.,4.8,0.,4.8
1981-08-26 12:23:10.380 ,5,0,0.,4.8,156.,4.8,0.,4.8,0.,4.8
1981-08-26 12:23:15.180 ,4,0,0.,4.8,148.,4.8,0.,4.8,0.,4.8
1981-08-26 12:23:19.980 ,4,0,0.,4.8,148.,4.8,0.,4.8,0.,4.8
1981-08-26 12:23:24.780 ,4,0,0.,4.8,136.,4.8,0.,4.8,0.,4.8
1981-08-26 12:23:29.580 ,4,0,0.,4.8,168.,4.8,0.,4.8,0.,4.8
1981-08-26 12:23:34.380 ,4,0,0.,4.8,172.,4.8,0.,4.8,0.,4.8
1981-08-26 12:23:39.180 ,4,0,0.,4.8,140.,4.8,0.,4.8,0.,4.8
1981-08-26 12:23:43.980 ,4,0,0.,4.8,164.,4.8,0.,4.8,0.,4.8
1981-08-26 12:23:48.780 ,4,0,0.,4.8,148.,4.8,0.,4.8,0.,4.8
1981-08-26 12:23:53.580 ,4,0,0.,4.8,156.,4.8,0.,4.8,0.,4.8
1981-08-26 12:23:58.380 ,4,0,0.,4.8,140.,4.8,0.,4.8,0.,4.8
1981-08-26 12:24:03.180 ,3,0,0.,4.8,148.,4.8,0.,4.8,0.,4.8
1981-08-26 12:24:07.980 ,3,0,0.,4.8,156.,4.8,0.,4.8,0.,4.8
1981-08-26 12:24:12.780 ,3,0,0.,4.8,164.,4.8,0.,4.8,0.,4.8
1981-08-26 12:24:17.580 ,3,0,0.,4.8,156.,4.8,0.,4.8,0.,4.8
1981-08-26 12:24:22.380 ,3,0,0.,4.8,132.,4.8,0.,4.8,0.,4.8
1981-08-26 12:24:27.180 ,3,0,0.,4.8,152.,4.8,0.,4.8,0.,4.8
1981-08-26 12:24:31.980 ,3,0,0.,4.8,192.,4.8,0.,4.8,0.,4.8
1981-08-26 12:24:36.780 ,3,0,0.,4.8,168.,4.8,0.,4.8,0.,4.8
1981-08-26 12:24:41.580 ,3,0,0.,4.8,160.,4.8,0.,4.8,0.,4.8
1981-08-26 12:24:46.380 ,3,0,0.,4.8,160.,4.8,0.,4.8,0.,4.8
1981-08-26 12:24:51.180 ,2,0,0.,4.8,168.,4.8,0.,4.8,0.,4.8
1981-08-26 12:24:55.980 ,2,0,0.,4.8,144.,4.8,0.,4.8,0.,4.8
1981-08-26 12:25:00.780 ,2,0,0.,4.8,152.,4.8,0.,4.8,0.,4.8
1981-08-26 12:25:05.580 ,2,0,0.,4.8,148.,4.8,0.,4.8,0.,4.8
1981-08-26 12:25:10.380 ,2,0,0.,4.8,164.,4.8,0.,4.8,0.,4.8
1981-08-26 12:25:15.180 ,2,0,0.,4.8,168.,4.8,0.,4.8,0.,4.8
1981-08-26 12:25:19.980 ,2,0,0.,4.8,140.,4.8,0.,4.8,0.,4.8
1981-08-26 12:25:24.780 ,2,0,0.,4.8,148.,4.8,0.,4.8,0.,4.8
1981-08-26 12:25:29.580 ,2,0,0.,4.8,160.,4.8,0.,4.8,0.,4.8
1981-08-26 12:25:34.380 ,2,0,0.,4.8,164.,4.8,0.,4.8,0.,4.8
1981-08-26 12:25:39.180 ,1,0,0.,4.8,132.,4.8,0.,4.8,0.,4.8
1981-08-26 12:25:43.980 ,1,0,0.,4.8,148.,4.8,0.,4.8,0.,4.8
1981-08-26 12:25:48.780 ,1,0,0.,4.8,164.,4.8,0.,4.8,0.,4.8
1981-08-26 12:25:53.580 ,1,0,0.,4.8,172.,4.8,0.,4.8,0.,4.8
1981-08-26 12:25:58.380 ,1,0,0.,4.8,160.,4.8,0.,4.8,0.,4.8
1981-08-26 12:26:03.180 ,1,0,0.,4.8,156.,4.8,0.,4.8,0.,4.8
1981-08-26 12:26:07.980 ,1,0,0.,4.8,148.,4.8,0.,4.8,0.,4.8
1981-08-26 12:26:12.780 ,1,0,0.,4.8,152.,4.8,0.,4.8,0.,4.8
1981-08-26 12:26:17.580 ,1,0,0.,4.8,148.,4.8,0.,4.8,0.,4.8
1981-08-26 12:26:22.380 ,1,0,0.,4.8,132.,4.8,0.,4.8,0.,4.8
1981-08-26 12:26:27.180 ,0,0,0.,4.8,160.,4.8,0.,4.8,0.,4.8
1981-08-26 12:26:31.980 ,0,0,0.,4.8,152.,4.8,0.,4.8,0.,4.8
1981-08-26 12:26:36.780 ,0,0,0.,4.8,140.,4.8,0.,4.8,0.,4.8
1981-08-26 12:26:41.580 ,0,0,0.,4.8,160.,4.8,0.,4.8,0.,4.8
1981-08-26 12:26:46.380 ,0,0,0.,4.8,172.,4.8,0.,4.8,0.,4.8
1981-08-26 12:26:51.180 ,0,0,0.,4.8,144.,4.8,0.,4.8,0.,4.8
1981-08-26 12:26:55.980 ,0,0,0.,4.8,144.,4.8,0.,4.8,0.,4.8
1981-08-26 12:27:00.780 ,0,0,0.,4.8,156.,4.8,0.,4.8,0.,4.8
1981-08-26 12:27:05.580 ,0,0,0.,4.8,148.,4.8,0.,4.8,0.,4.8
1981-08-26 12:27:10.380 ,0,0,0.,4.8,168.,4.8,0.,4.8,0.,4.8
1981-08-26 12:27:15.180 ,0,0,0.,4.8,160.,4.8,0.,4.8,0.,4.8
1981-08-26 12:27:19.980 ,0,0,0.,4.8,156.,4.8,0.,4.8,0.,4.8
1981-08-26 12:27:24.780 ,0,0,0.,4.8,148.,4.8,0.,4.8,0.,4.8
1981-08-26 12:27:29.580 ,0,0,0.,4.8,152.,4.8,0.,4.8,0.,4.8
1981-08-26 12:27:34.380 ,0,0,0.,4.8,144.,4.8,0.,4.8,0.,4.8
1981-08-26 12:27:39.180 ,0,0,0.,4.8,136.,4.8,0.,4.8,0.,4.8
1981-08-26 12:27:43.980 ,0,0,0.,4.8,152.,4.8,0.,4.8,0.,4.8
1981-08-26 12:27:48.780 ,0,0,0.,4.8,136.,4.8,0.,4.8,0.,4.8
1981-08-26 12:27:53.580 ,0,0,0.,4.8,132.,4.8,0.,4.8,0.,4.8
1981-08-26 12:27:58.380 ,0,0,0.,4.8,164.,4.8,0.,4.8,0.,4.8
1981-08-26 12:28:03.180 ,1,0,0.,4.8,132.,4.8,0.,4.8,0.,4.8
1981-08-26 12:28:07.980 ,1,0,0.,4.8,168.,4.8,0.,4.8,0.,4.8
1981-08-26 12:28:12.780 ,1,0,0.,4.8,136.,4.8,0.,4.8,0.,4.8
1981-08-26 12:28:17.580 ,1,0,0.,4.8,140.,4.8,0.,4.8,0.,4.8
1981-08-26 12:28:22.380 ,1,0,0.,4.8,140.,4.8,0.,4.8,0.,4.8
1981-08-26 12:28:27.180 ,1,0,0.,4.8,156.,4.8,0.,4.8,0.,4.8
1981-08-26 12:28:31.980 ,1,0,0.,4.8,156.,4.8,0.,4.8,0.,4.8
1981-08-26 12:28:36.780 ,1,0,0.,4.8,144.,4.8,0.,4.8,0.,4.8
1981-08-26 12:28:41.580 ,1,0,0.,4.8,136.,4.8,0.,4.8,0.,4.8
1981-08-26 12:28:46.380 ,1,0,0.,4.8,164.,4.8,0.,4.8,0.,4.8
1981-08-26 12:28:51.180 ,2,0,0.,4.8,140.,4.8,0.,4.8,0.,4.8
1981-08-26 12:28:55.980 ,2,0,0.,4.8,124.,4.8,0.,4.8,0.,4.8
1981-08-26 12:29:00.780 ,2,0,0.,4.8,148.,4.8,0.,4.8,0.,4.8
1981-08-26 12:29:05.580 ,2,0,0.,4.8,132.,4.8,0.,4.8,0.,4.8
1981-08-26 12:29:10.380 ,2,0,0.,4.8,148.,4.8,0.,4.8,0.,4.8
1981-08-26 12:29:15.180 ,2,0,0.,4.8,148.,4.8,0.,4.8,0.,4.8
1981-08-26 12:29:19.980 ,2,0,0.,4.8,164.,4.8,0.,4.8,0.,4.8
1981-08-26 12:29:24.780 ,2,0,0.,4.8,148.,4.8,0.,4.8,0.,4.8
1981-08-26 12:29:29.580 ,2,0,0.,4.8,140.,4.8,0.,4.8,0.,4.8
1981-08-26 12:29:34.380 ,2,0,0.,4.8,160.,4.8,0.,4.8,0.,4.8
1981-08-26 12:29:39.180 ,3,0,0.,4.8,152.,4.8,0.,4.8,0.,4.8
1981-08-26 12:29:43.980 ,3,0,0.,4.8,156.,4.8,0.,4.8,0.,4.8
1981-08-26 12:29:48.780 ,3,0,0.,4.8,152.,4.8,0.,4.8,0.,4.8
1981-08-26 12:29:53.580 ,3,0,0.,4.8,152.,4.8,0.,4.8,0.,4.8
1981-08-26 12:29:58.380 ,3,0,0.,4.8,140.,4.8,0.,4.8,0.,4.8
1981-08-26 12:30:03.180 ,3,0,0.,4.8,156.,4.8,0.,4.8,0.,4.8
1981-08-26 12:30:07.980 ,3,0,0.,4.8,136.,4.8,0.,4.8,0.,4.8
1981-08-26 12:30:12.780 ,3,0,0.,4.8,148.,4.8,0.,4.8,0.,4.8
1981-08-26 12:30:17.580 ,3,0,0.,4.8,164.,4.8,0.,4.8,0.,4.8
1981-08-26 12:30:22.380 ,3,0,0.,4.8,156.,4.8,0.,4.8,0.,4.8
1981-08-26 12:30:27.180 ,4,0,0.,4.8,168.,4.8,0.,4.8,0.,4.8
1981-08-26 12:30:31.980 ,4,0,0.,4.8,148.,4.8,0.,4.8,0.,4.8
1981-08-26 12:30:36.780 ,4,0,0.,4.8,148.,4.8,0.,4.8,0.,4.8
1981-08-26 12:30:41.580 ,4,0,0.,4.8,156.,4.8,0.,4.8,0.,4.8
1981-08-26 12:30:46.380 ,4,0,0.,4.8,148.,4.8,0.,4.8,0.,4.8
1981-08-26 12:30:51.180 ,4,0,0.,4.8,184.,4.8,0.,4.8,0.,4.8
1981-08-26 12:30:55.980 ,4,0,0.,4.8,118.,4.8,0.,4.8,0.,4.8
1981-08-26 12:31:00.780 ,4,0,0.,4.8,156.,4.8,0.,4.8,0.,4.8
1981-08-26 12:31:05.580 ,4,0,0.,4.8,148.,4.8,0.,4.8,0.,4.8
1981-08-26 12:31:10.380 ,4,0,0.,4.8,160.,4.8,0.,4.8,0.,4.8
1981-08-26 12:31:15.180 ,5,0,0.,4.8,172.,4.8,0.,4.8,0.,4.8
1981-08-26 12:31:19.980 ,5,0,0.,4.8,156.,4.8,0.,4.8,0.,4.8
1981-08-26 12:31:24.780 ,5,0,0.,4.8,152.,4.8,0.,4.8,0.,4.8
1981-08-26 12:31:29.580 ,5,0,0.,4.8,140.,4.8,0.,4.8,0.,4.8
1981-08-26 12:31:34.380 ,5,0,0.,4.8,144.,4.8,0.,4.8,0.,4.8
1981-08-26 12:31:39.180 ,5,0,0.,4.8,128.,4.8,0.,4.8,0.,4.8
1981-08-26 12:31:43.980 ,5,0,0.,4.8,160.,4.8,0.,4.8,0.,4.8
1981-08-26 12:31:48.780 ,5,0,0.,4.8,164.,4.8,0.,4.8,0.,4.8
1981-08-26 12:31:53.580 ,5,0,0.,4.8,160.,4.8,0.,4.8,0.,4.8
1981-08-26 12:31:58.380 ,5,0,0.,4.8,144.,4.8,0.,4.8,0.,4.8
1981-08-26 12:32:03.180 ,6,0,0.,4.8,164.,4.8,0.,4.8,0.,4.8
1981-08-26 12:32:07.980 ,6,0,0.,4.8,160.,4.8,0.,4.8,0.,4.8
1981-08-26 12:32:12.780 ,6,0,0.,4.8,136.,4.8,0.,4.8,0.,4.8
1981-08-26 12:32:17.580 ,6,0,0.,4.8,160.,4.8,0.,4.8,0.,4.8
1981-08-26 12:32:22.380 ,6,0,0.,4.8,140.,4.8,0.,4.8,0.,4.8
1981-08-26 12:32:27.180 ,6,0,0.,4.8,132.,4.8,0.,4.8,0.,4.8
1981-08-26 12:32:31.980 ,6,0,0.,4.8,156.,4.8,0.,4.8,0.,4.8
1981-08-26 12:32:36.780 ,6,0,0.,4.8,152.,4.8,0.,4.8,0.,4.8
1981-08-26 12:32:41.580 ,6,0,0.,4.8,156.,4.8,0.,4.8,0.,4.8
1981-08-26 12:32:46.380 ,6,0,0.,4.8,156.,4.8,0.,4.8,0.,4.8
1981-08-26 12:32:51.180 ,7,0,0.,4.8,188.,4.8,0.,4.8,0.,4.8
1981-08-26 12:32:55.980 ,7,0,0.,4.8,140.,4.8,0.,4.8,0.,4.8
1981-08-26 12:33:00.780 ,7,0,0.,4.8,160.,4.8,0.,4.8,0.,4.8
1981-08-26 12:33:05.580 ,7,0,0.,4.8,156.,4.8,0.,4.8,0.,4.8
1981-08-26 12:33:10.380 ,7,0,0.,4.8,144.,4.8,0.,4.8,0.,4.8